This demonstration page uses our WeatherBlox Daily Observations layout. Learn more.

Left ArrowRight Arrow

39.12711, -84.51439

Hourly Observations for May 30, 2018

Temp ( °F °C ) Dew Point ( °F °C ) Humidity (%) Winds ( mph kmh ) Pressure ( in mb ) Visibility ( mi km ) Precip ( " mm )
12:53 am 00:53 Clear 79 26.1 71 21.7 77 77 ESE 5 7 29.79 1009 10 16 0.00 0.00
1:53 am 01:53 Clear 78 25.6 69 20.6 74 74 VRB 3 6 29.79 1009 10 16 0.00 0.00
2:53 am 02:53 Clear 77 25 69 20.6 77 77 VRB 6 9 29.79 1009 10 16 0.00 0.00
3:53 am 03:53 Mostly Clear 76 24.4 69 20.6 79 79 VRB 3 6 29.78 1009 10 16 0.00 0.00
4:53 am 04:53 Mostly Clear 75 23.9 69 20.6 82 82 SE 3 6 29.78 1009 10 16 0.00 0.00
5:53 am 05:53 Clear 75 23.9 69 20.6 82 82 VRB 5 7 29.78 1009 10 16 0.00 0.00
6:53 am 06:53 Sunny 75 23.9 69 20.6 82 82 SE 5 7 29.79 1009 10 16 0.00 0.00
7:53 am 07:53 Mostly Sunny 76 24.4 69 20.6 79 79 SSE 5 7 29.79 1009 10 16 0.00 0.00
8:53 am 08:53 Partly Cloudy 77 25 70 21.1 79 79 SE 7 11 29.80 1009 10 16 0.00 0.00
9:53 am 09:53 Mostly Sunny 80 26.7 71 21.7 74 74 SE 9 15 29.79 1009 10 16 0.00 0.00
10:53 am 10:53 Partly Cloudy 80 26.7 71 21.7 74 74 SSE 12 19 29.78 1008 10 16 0.00 0.00
11:53 am 11:53 Partly Cloudy 82 27.8 71 21.7 69 69 SSE 14 22 29.76 1008 10 16 0.00 0.00
12:53 pm 12:53 Mostly Cloudy 84 28.9 72 22.2 67 67 S 18 30 29.75 1007 10 16 0.00 0.00
1:53 pm 13:53 Mostly Cloudy 81 27.2 72 22.2 74 74 S 10 17 29.73 1007 10 16 0.00 0.03
1:58 pm 13:58 Mostly Cloudy with Light Rain 80 26.7 72 22.2 76 76 S 12 19 29.74 1007 6 10 0.03 0.76
2:38 pm 14:38 Cloudy with Heavy Rain 77 25 75 23.9 94 94 SSW 17 28 29.74 1007 2 3 0.12 3.05
2:40 pm 14:40 Cloudy with Heavy Rain 77 25 74 23.3 90 90 SSW 17 28 29.74 1007 3 5 0.13 3.30
2:53 pm 14:53 Cloudy with Light Rain 75 23.9 73 22.8 94 94 S 16 26 29.75 1007 5 8 0.14 3.56
3:00 pm 15:00 Mostly Cloudy with Nearby Thunderstorms 74 23.3 73 22.8 97 97 S 13 20 29.77 1008 5 8 0.01 0.25
3:07 pm 15:07 Mostly Cloudy with Nearby Thunderstorms 76 24.4 74 23.3 94 94 S 9 15 29.74 1007 10 16 0.01 0.25
3:19 pm 15:19 Mostly Sunny 76 24.4 74 23.3 94 94 S 12 19 29.74 1007 10 16 0.01 0.25
3:53 pm 15:53 Sunny 78 25.6 74 23.3 87 87 S 13 20 29.71 1006 10 16 0.01 0.25
4:53 pm 16:53 Mostly Cloudy 78 25.6 74 23.3 87 87 S 8 13 29.71 1006 10 16 0.00 0.00
5:53 pm 17:53 Partly Cloudy 80 26.7 74 23.3 82 82 S 16 26 29.69 1005 10 16 0.00 0.03
6:53 pm 18:53 Partly Cloudy 80 26.7 72 22.2 76 76 S 15 24 29.69 1005 10 16 0.00 0.00
7:53 pm 19:53 Mostly Sunny 77 25 73 22.8 88 88 S 10 17 29.69 1005 10 16 0.00 0.00
8:53 pm 20:53 Mostly Cloudy 78 25.6 72 22.2 82 82 S 12 19 29.71 1006 10 16 0.00 0.00
9:53 pm 21:53 Mostly Cloudy 75 23.9 73 22.8 94 94 S 7 11 29.75 1007 10 16 0.00 0.03
10:04 pm 22:04 Cloudy with Thunderstorms 75 23.9 73 22.8 94 94 S 7 11 29.77 1008 10 16 0.00 0.00
10:36 pm 22:36 Cloudy with Light Rain 74 23.3 74 23.3 100 100 S 6 9 29.77 1008 4 6 0.06 1.52
10:53 pm 22:53 Mostly Cloudy 74 23.3 74 23.3 100 100 S 6 9 29.76 1008 10 16 0.06 1.52
11:53 pm 23:53 Clear with Light Rain 73 22.8 72 22.2 96 96 S 8 13 29.76 1008 10 16 0.00 0.03

Powered by AerisWeather